User: anonymous   Login
Location: Vancouver
(49.2500°N, 123.1330°W)
Time: 08:24:21
(UTC-07:00)
Language:

S-56A Canister/Altair - Orbit

View from above orbital plane
View from above orbital plane
View from above satellite
View from above satellite

Ground track
Ground track

The orbit data is extracted from the following two-line orbital elements,

1 00082U 61004B   15211.73277872 -.00000040  00000-0  13668-4 0  9997
2 00082 038.8553 320.5711 1171059 117.4747 254.9836 12.25705106588904
Epoch (UTC): 30 July 2015 17:35:12
Eccentricity: 0.1171059
inclination: 38.8553°
perigee height: 637 km
apogee height: 2498 km
right ascension of ascending node: 320.5711°
argument of perigee: 117.4747°
revolutions per day: 12.25705106
mean anomaly at epoch: 254.9836°
orbit number at epoch: 58890

The dashed part of the orbit path shows where the satellite is in the earth's shadow,  

DLR